Data supplied by UK-AIR on 15/5/2019
All Data GMT hour ending  NB:  Upto 30/09/2018 PM10 were measured with a Partisol (emfab), from 01/10/2018 PM10 were measured with a FIDAS
Status: R =Ratified P=Provisional,P*=As supplied
,,Wrexham,,,,,,,,,,,,,,,,,,,,,,,
Date,time,"PM<sub>10</sub> particulate matter (Hourly measured)",status,unit,"Nitric oxide",status,unit,"Nitrogen dioxide",status,unit,"Nitrogen oxides as nitrogen dioxide",status,unit,"PM<sub>2.5</sub> particulate matter (Hourly measured)",status,unit,"Sulphur dioxide",status,unit
 
01-01-2018,01:00,,,,0.46703,R,ugm-3,0.87231,R,ugm-3,1.58841,R,ugm-3,,,,,,
01-01-2018,02:00,,,,2.80218,R,ugm-3,5.45046,R,ugm-3,9.74707,R,ugm-3,,,,,,
01-01-2018,03:00,,,,0.98076,R,ugm-3,3.36972,R,ugm-3,4.87354,R,ugm-3,,,,,,
01-01-2018,04:00,,,,0.38530,R,ugm-3,0.05902,R,ugm-3,0.64980,R,ugm-3,,,,,,
01-01-2018,05:00,,,,0.38530,R,ugm-3,0.27562,R,ugm-3,0.86641,R,ugm-3,,,,,,
01-01-2018,06:00,,,,0.49038,R,ugm-3,0.98091,R,ugm-3,1.73281,R,ugm-3,,,,,,
01-01-2018,07:00,,,,1.64628,R,ugm-3,10.25523,R,ugm-3,12.77949,R,ugm-3,,,,,,
01-01-2018,08:00,,,,1.89147,R,ugm-3,16.48563,R,ugm-3,19.38584,R,ugm-3,,,,,,
01-01-2018,09:00,,,,4.48349,R,ugm-3,29.89353,R,ugm-3,36.76812,R,ugm-3,,,,,,
01-01-2018,10:00,,,,1.26098,R,ugm-3,11.71242,R,ugm-3,13.64590,R,ugm-3,,,,,,
01-01-2018,11:00,,,,0.45535,R,ugm-3,3.25478,R,ugm-3,3.95298,R,ugm-3,,,,,,
01-01-2018,12:00,,,,2.34683,R,ugm-3,4.41584,R,ugm-3,8.01426,R,ugm-3,,,,,,
01-01-2018,13:00,,,,2.03158,R,ugm-3,5.65732,R,ugm-3,8.77236,R,ugm-3,,,,,,
01-01-2018,14:00,,,,0.63049,R,ugm-3,2.22814,R,ugm-3,3.19487,R,ugm-3,,,,,,
01-01-2018,15:00,,,,0.59546,R,ugm-3,1.36129,R,ugm-3,2.27432,R,ugm-3,,,,,,
01-01-2018,16:00,,,,1.57623,R,ugm-3,2.88989,R,ugm-3,5.30674,R,ugm-3,,,,,,
01-01-2018,17:00,,,,1.22595,R,ugm-3,3.37282,R,ugm-3,5.25259,R,ugm-3,,,,,,
01-01-2018,18:00,,,,0.63049,R,ugm-3,2.49889,R,ugm-3,3.46563,R,ugm-3,,,,,,
01-01-2018,19:00,,,,0.73557,R,ugm-3,1.79626,R,ugm-3,2.92412,R,ugm-3,,,,,,
01-01-2018,20:00,,,,0.52541,R,ugm-3,1.90191,R,ugm-3,2.70752,R,ugm-3,,,,,,
01-01-2018,21:00,,,,0.38530,R,ugm-3,2.38749,R,ugm-3,2.97827,R,ugm-3,,,,,,
01-01-2018,22:00,,,,1.40109,R,ugm-3,3.05013,R,ugm-3,5.19844,R,ugm-3,,,,,,
01-01-2018,23:00,,,,0.42033,R,ugm-3,1.35907,R,ugm-3,2.00357,R,ugm-3,,,,,,
01-01-2018,24:00,,,,0.35027,R,ugm-3,0.97914,R,ugm-3,1.51621,R,ugm-3,,,,,,
02-01-2018,01:00,,,,0.37322,R,ugm-3,0.58194,R,ugm-3,1.15420,R,ugm-3,,,,,,
02-01-2018,02:00,,,,0.69979,R,ugm-3,2.93066,R,ugm-3,4.00365,R,ugm-3,,,,,,
02-01-2018,03:00,,,,0.38488,R,ugm-3,3.03478,R,ugm-3,3.62492,R,ugm-3,,,,,,
02-01-2018,04:00,,,,0.52484,R,ugm-3,3.19890,R,ugm-3,4.00365,R,ugm-3,,,,,,
02-01-2018,05:00,,,,0.87473,R,ugm-3,2.22958,R,ugm-3,3.57082,R,ugm-3,,,,,,
02-01-2018,06:00,,,,5.42333,R,ugm-3,15.81441,R,ugm-3,24.13008,R,ugm-3,,,,,,
02-01-2018,07:00,,,,7.83759,R,ugm-3,16.00804,R,ugm-3,28.02551,R,ugm-3,,,,,,
02-01-2018,08:00,,,,23.33783,R,ugm-3,36.28143,R,ugm-3,72.06561,R,ugm-3,,,,,,
02-01-2018,09:00,,,,24.73740,R,ugm-3,36.13728,R,ugm-3,74.06743,R,ugm-3,,,,,,
02-01-2018,10:00,,,,23.33783,R,ugm-3,33.52216,R,ugm-3,69.30634,R,ugm-3,,,,,,
02-01-2018,11:00,,,,17.59959,R,ugm-3,18.24470,R,ugm-3,45.23037,R,ugm-3,,,,,,
02-01-2018,12:00,,,,24.21256,R,ugm-3,37.59126,R,ugm-3,74.71667,R,ugm-3,,,,,,
02-01-2018,13:00,,,,23.44280,R,ugm-3,33.52352,R,ugm-3,69.46865,R,ugm-3,,,,,,
02-01-2018,14:00,,,,16.13005,R,ugm-3,30.07426,R,ugm-3,54.80665,R,ugm-3,,,,,,
02-01-2018,15:00,,,,3.63888,R,ugm-3,8.27091,R,ugm-3,13.85045,R,ugm-3,,,,,,
02-01-2018,16:00,,,,0.76976,R,ugm-3,3.68901,R,ugm-3,4.86930,R,ugm-3,,,,,,
02-01-2018,17:00,,,,5.91318,R,ugm-3,15.22563,R,ugm-3,24.29239,R,ugm-3,,,,,,
02-01-2018,18:00,,,,16.79484,R,ugm-3,32.51753,R,ugm-3,58.26926,R,ugm-3,,,,,,
02-01-2018,19:00,,,,12.56114,R,ugm-3,29.81155,R,ugm-3,49.07170,R,ugm-3,,,,,,
02-01-2018,20:00,,,,6.05314,R,ugm-3,12.63049,R,ugm-3,21.91184,R,ugm-3,,,,,,
02-01-2018,21:00,,,,2.79914,R,ugm-3,8.90925,R,ugm-3,13.20121,R,ugm-3,,,,,,
02-01-2018,22:00,,,,0.52484,R,ugm-3,1.62991,R,ugm-3,2.43465,R,ugm-3,,,,,,
02-01-2018,23:00,,,,0.45486,R,ugm-3,0.76335,R,ugm-3,1.46079,R,ugm-3,,,,,,
02-01-2018,24:00,,,,0.83974,R,ugm-3,0.76834,R,ugm-3,2.05593,R,ugm-3,,,,,,
03-01-2018,01:00,,,,0.46602,R,ugm-3,0.58280,R,ugm-3,1.29735,R,ugm-3,,,,,,
03-01-2018,02:00,,,,0.13981,R,ugm-3,0.14601,R,ugm-3,0.36037,R,ugm-3,,,,,,
03-01-2018,03:00,,,,0.31456,R,ugm-3,0.22041,R,ugm-3,0.70273,R,ugm-3,,,,,,
03-01-2018,04:00,,,,0.27961,R,ugm-3,0.16589,R,ugm-3,0.59462,R,ugm-3,,,,,,
03-01-2018,05:00,,,,0.06990,R,ugm-3,0.05499,R,ugm-3,0.16217,R,ugm-3,,,,,,
03-01-2018,06:00,,,,0.52427,R,ugm-3,0.43943,R,ugm-3,1.24329,R,ugm-3,,,,,,
03-01-2018,07:00,,,,0.55922,R,ugm-3,0.87234,R,ugm-3,1.72980,R,ugm-3,,,,,,
03-01-2018,08:00,,,,0.62912,R,ugm-3,1.68411,R,ugm-3,2.64876,R,ugm-3,,,,,,
03-01-2018,09:00,,,,0.55922,R,ugm-3,2.22375,R,ugm-3,3.08120,R,ugm-3,,,,,,
03-01-2018,10:00,,,,0.62912,R,ugm-3,1.41383,R,ugm-3,2.37847,R,ugm-3,,,,,,
03-01-2018,11:00,,,,0.59417,R,ugm-3,1.46742,R,ugm-3,2.37847,R,ugm-3,,,,,,
03-01-2018,12:00,,,,0.88543,R,ugm-3,2.10195,R,ugm-3,3.45960,R,ugm-3,,,,,,
03-01-2018,13:00,,,,1.11844,R,ugm-3,2.44741,R,ugm-3,4.16233,R,ugm-3,,,,,,
03-01-2018,14:00,,,,0.59417,R,ugm-3,2.33232,R,ugm-3,3.24337,R,ugm-3,,,,,,
03-01-2018,15:00,,,,0.59417,R,ugm-3,2.11610,R,ugm-3,3.02715,R,ugm-3,,,,,,
03-01-2018,16:00,,,,0.59417,R,ugm-3,2.71072,R,ugm-3,3.62177,R,ugm-3,,,,,,
03-01-2018,17:00,,,,1.22329,R,ugm-3,3.36776,R,ugm-3,5.24345,R,ugm-3,,,,,,
03-01-2018,18:00,,,,0.69903,R,ugm-3,2.87428,R,ugm-3,3.94610,R,ugm-3,,,,,,
03-01-2018,19:00,,,,0.55922,R,ugm-3,1.84535,R,ugm-3,2.70281,R,ugm-3,,,,,,
03-01-2018,20:00,,,,0.48932,R,ugm-3,1.52009,R,ugm-3,2.27036,R,ugm-3,,,,,,
03-01-2018,21:00,,,,0.48932,R,ugm-3,1.52009,R,ugm-3,2.27036,R,ugm-3,,,,,,
03-01-2018,22:00,,,,0.55922,R,ugm-3,1.14262,R,ugm-3,2.00008,R,ugm-3,,,,,,
03-01-2018,23:00,,,,0.48932,R,ugm-3,1.08764,R,ugm-3,1.83791,R,ugm-3,,,,,,
03-01-2018,24:00,,,,1.29320,R,ugm-3,3.63897,R,ugm-3,5.62185,R,ugm-3,,,,,,
04-01-2018,01:00,,,,0.51206,R,ugm-3,2.02333,R,ugm-3,2.80847,R,ugm-3,,,,,,
04-01-2018,02:00,,,,0.38405,R,ugm-3,1.24745,R,ugm-3,1.83631,R,ugm-3,,,,,,
04-01-2018,03:00,,,,0.48879,R,ugm-3,1.57293,R,ugm-3,2.32239,R,ugm-3,,,,,,
04-01-2018,04:00,,,,0.52370,R,ugm-3,2.81562,R,ugm-3,3.61861,R,ugm-3,,,,,,
04-01-2018,05:00,,,,1.01249,R,ugm-3,3.95648,R,ugm-3,5.50893,R,ugm-3,,,,,,
04-01-2018,06:00,,,,1.99006,R,ugm-3,10.50492,R,ugm-3,13.55629,R,ugm-3,,,,,,
04-01-2018,07:00,,,,8.76323,R,ugm-3,17.18641,R,ugm-3,30.62317,R,ugm-3,,,,,,
04-01-2018,08:00,,,,12.88299,R,ugm-3,18.64684,R,ugm-3,38.40049,R,ugm-3,,,,,,
04-01-2018,09:00,,,,7.92531,R,ugm-3,21.27968,R,ugm-3,33.43165,R,ugm-3,,,,,,
04-01-2018,10:00,,,,8.55375,R,ugm-3,25.71700,R,ugm-3,38.83256,R,ugm-3,,,,,,
04-01-2018,11:00,,,,5.37664,R,ugm-3,18.92252,R,ugm-3,27.16659,R,ugm-3,,,,,,
04-01-2018,12:00,,,,0.83792,R,ugm-3,2.54986,R,ugm-3,3.83465,R,ugm-3,,,,,,
04-01-2018,13:00,,,,0.87283,R,ugm-3,1.84822,R,ugm-3,3.18654,R,ugm-3,,,,,,
04-01-2018,14:00,,,,0.90775,R,ugm-3,2.76685,R,ugm-3,4.15870,R,ugm-3,,,,,,
04-01-2018,15:00,,,,0.83792,R,ugm-3,2.71189,R,ugm-3,3.99668,R,ugm-3,,,,,,
04-01-2018,16:00,,,,1.15214,R,ugm-3,2.66216,R,ugm-3,4.42875,R,ugm-3,,,,,,
04-01-2018,17:00,,,,0.41896,R,ugm-3,2.97622,R,ugm-3,3.61861,R,ugm-3,,,,,,
04-01-2018,18:00,,,,0.87283,R,ugm-3,3.90056,R,ugm-3,5.23888,R,ugm-3,,,,,,
04-01-2018,19:00,,,,1.15214,R,ugm-3,3.58032,R,ugm-3,5.34690,R,ugm-3,,,,,,
04-01-2018,20:00,,,,9.21710,R,ugm-3,19.02891,R,ugm-3,33.16160,R,ugm-3,,,,,,
04-01-2018,21:00,,,,4.95768,R,ugm-3,14.65009,R,ugm-3,22.25176,R,ugm-3,,,,,,
04-01-2018,22:00,,,,17.03767,R,ugm-3,38.47085,R,ugm-3,64.59491,R,ugm-3,,,,,,
04-01-2018,23:00,,,,5.48138,R,ugm-3,33.88448,R,ugm-3,42.28915,R,ugm-3,,,,,,
04-01-2018,24:00,,,,10.61363,R,ugm-3,35.30471,R,ugm-3,51.57871,R,ugm-3,,,,,,
05-01-2018,01:00,,,,5.58004,R,ugm-3,25.69196,R,ugm-3,34.24790,R,ugm-3,,,,,,
05-01-2018,02:00,,,,0.59288,R,ugm-3,8.80410,R,ugm-3,9.71317,R,ugm-3,,,,,,
05-01-2018,03:00,,,,0.69751,R,ugm-3,5.56784,R,ugm-3,6.63733,R,ugm-3,,,,,,
05-01-2018,04:00,,,,0.80213,R,ugm-3,3.62667,R,ugm-3,4.85658,R,ugm-3,,,,,,
05-01-2018,05:00,,,,1.74376,R,ugm-3,3.74775,R,ugm-3,6.42148,R,ugm-3,,,,,,
05-01-2018,06:00,,,,5.47542,R,ugm-3,15.72551,R,ugm-3,24.12103,R,ugm-3,,,,,,
05-01-2018,07:00,,,,23.61055,R,ugm-3,38.26527,R,ugm-3,74.46761,R,ugm-3,,,,,,
05-01-2018,08:00,,,,42.09443,R,ugm-3,55.89936,R,ugm-3,120.44326,R,ugm-3,,,,,,
05-01-2018,09:00,,,,46.31434,R,ugm-3,69.39488,R,ugm-3,140.40921,R,ugm-3,,,,,,
05-01-2018,10:00,,,,47.36060,R,ugm-3,60.99142,R,ugm-3,133.60999,R,ugm-3,,,,,,
05-01-2018,11:00,,,,10.42770,R,ugm-3,37.81123,R,ugm-3,53.80015,R,ugm-3,,,,,,
05-01-2018,12:00,,,,7.14943,R,ugm-3,27.08093,R,ugm-3,38.04323,R,ugm-3,,,,,,
05-01-2018,13:00,,,,5.33591,R,ugm-3,21.76731,R,ugm-3,29.94893,R,ugm-3,,,,,,
05-01-2018,14:00,,,,4.15016,R,ugm-3,19.64622,R,ugm-3,26.00970,R,ugm-3,,,,,,
05-01-2018,15:00,,,,4.42916,R,ugm-3,25.37009,R,ugm-3,32.16137,R,ugm-3,,,,,,
05-01-2018,16:00,,,,4.88254,R,ugm-3,25.53831,R,ugm-3,33.02477,R,ugm-3,,,,,,
05-01-2018,17:00,,,,109.08980,R,ugm-3,95.14867,R,ugm-3,262.41737,R,ugm-3,,,,,,
05-01-2018,18:00,,,,107.24141,R,ugm-3,91.66927,R,ugm-3,256.10381,R,ugm-3,,,,,,
05-01-2018,19:00,,,,45.19833,R,ugm-3,63.71327,R,ugm-3,133.01641,R,ugm-3,,,,,,
05-01-2018,20:00,,,,83.31699,R,ugm-3,62.84297,R,ugm-3,190.59390,R,ugm-3,,,,,,
05-01-2018,21:00,,,,65.94911,R,ugm-3,55.53123,R,ugm-3,156.65178,R,ugm-3,,,,,,
05-01-2018,22:00,,,,32.25961,R,ugm-3,46.80422,R,ugm-3,96.26827,R,ugm-3,,,,,,
05-01-2018,23:00,,,,12.06684,R,ugm-3,38.31979,R,ugm-3,56.82202,R,ugm-3,,,,,,
05-01-2018,24:00,,,,5.09179,R,ugm-3,33.58158,R,ugm-3,41.38888,R,ugm-3,,,,,,
06-01-2018,01:00,,,,18.67277,R,ugm-3,60.43630,R,ugm-3,89.06748,R,ugm-3,,,,,,
06-01-2018,02:00,,,,1.49800,R,ugm-3,22.77354,R,ugm-3,25.07045,R,ugm-3,,,,,,
06-01-2018,03:00,,,,0.80126,R,ugm-3,20.49915,R,ugm-3,21.72772,R,ugm-3,,,,,,
06-01-2018,04:00,,,,0.52256,R,ugm-3,10.08957,R,ugm-3,10.89082,R,ugm-3,,,,,,
06-01-2018,05:00,,,,0.90577,R,ugm-3,9.93331,R,ugm-3,11.32214,R,ugm-3,,,,,,
06-01-2018,06:00,,,,1.88121,R,ugm-3,14.04481,R,ugm-3,16.92929,R,ugm-3,,,,,,
06-01-2018,07:00,,,,2.96117,R,ugm-3,20.36831,R,ugm-3,24.90870,R,ugm-3,,,,,,
06-01-2018,08:00,,,,5.67847,R,ugm-3,16.52532,R,ugm-3,25.23219,R,ugm-3,,,,,,
06-01-2018,09:00,,,,10.17248,R,ugm-3,27.58829,R,ugm-3,43.18587,R,ugm-3,,,,,,
06-01-2018,10:00,,,,17.90635,R,ugm-3,37.78106,R,ugm-3,65.23708,R,ugm-3,,,,,,
06-01-2018,11:00,,,,19.85724,R,ugm-3,38.61770,R,ugm-3,69.06504,R,ugm-3,,,,,,
06-01-2018,12:00,,,,25.64022,R,ugm-3,41.28838,R,ugm-3,80.60284,R,ugm-3,,,,,,
06-01-2018,13:00,,,,30.83097,R,ugm-3,37.53470,R,ugm-3,84.80820,R,ugm-3,,,,,,
06-01-2018,14:00,,,,42.95434,R,ugm-3,57.76456,R,ugm-3,123.62696,R,ugm-3,,,,,,
06-01-2018,15:00,,,,30.93549,R,ugm-3,45.24604,R,ugm-3,92.67978,R,ugm-3,,,,,,
06-01-2018,16:00,,,,30.02972,R,ugm-3,52.61942,R,ugm-3,98.66434,R,ugm-3,,,,,,
06-01-2018,17:00,,,,30.27358,R,ugm-3,67.23386,R,ugm-3,113.65270,R,ugm-3,,,,,,
06-01-2018,18:00,,,,24.66478,R,ugm-3,62.73257,R,ugm-3,100.55137,R,ugm-3,,,,,,
06-01-2018,19:00,,,,18.08054,R,ugm-3,54.92850,R,ugm-3,82.65161,R,ugm-3,,,,,,
06-01-2018,20:00,,,,12.43690,R,ugm-3,48.21620,R,ugm-3,67.28585,R,ugm-3,,,,,,
06-01-2018,21:00,,,,7.59452,R,ugm-3,38.49613,R,ugm-3,50.14090,R,ugm-3,,,,,,
06-01-2018,22:00,,,,4.11080,R,ugm-3,27.33979,R,ugm-3,33.64292,R,ugm-3,,,,,,
06-01-2018,23:00,,,,3.90177,R,ugm-3,25.93501,R,ugm-3,31.91765,R,ugm-3,,,,,,
06-01-2018,24:00,,,,3.13535,R,ugm-3,26.84060,R,ugm-3,31.64807,R,ugm-3,,,,,,
07-01-2018,01:00,,,,2.36635,R,ugm-3,26.32217,R,ugm-3,29.95053,R,ugm-3,,,,,,
07-01-2018,02:00,,,,1.99516,R,ugm-3,23.51561,R,ugm-3,26.57481,R,ugm-3,,,,,,
07-01-2018,03:00,,,,1.87916,R,ugm-3,20.76665,R,ugm-3,23.64799,R,ugm-3,,,,,,
07-01-2018,04:00,,,,0.97438,R,ugm-3,16.71331,R,ugm-3,18.20733,R,ugm-3,,,,,,
07-01-2018,05:00,,,,1.42677,R,ugm-3,18.06663,R,ugm-3,20.25431,R,ugm-3,,,,,,
07-01-2018,06:00,,,,2.19235,R,ugm-3,20.17869,R,ugm-3,23.54025,R,ugm-3,,,,,,
07-01-2018,07:00,,,,2.67954,R,ugm-3,22.66375,R,ugm-3,26.77232,R,ugm-3,,,,,,
07-01-2018,08:00,,,,2.40115,R,ugm-3,22.76740,R,ugm-3,26.44911,R,ugm-3,,,,,,
07-01-2018,09:00,,,,2.54035,R,ugm-3,28.42557,R,ugm-3,32.32071,R,ugm-3,,,,,,
07-01-2018,10:00,,,,6.92505,R,ugm-3,34.95394,R,ugm-3,45.57220,R,ugm-3,,,,,,
07-01-2018,11:00,,,,13.22372,R,ugm-3,37.03931,R,ugm-3,57.31539,R,ugm-3,,,,,,
07-01-2018,12:00,,,,16.39045,R,ugm-3,37.57050,R,ugm-3,62.70218,R,ugm-3,,,,,,
07-01-2018,13:00,,,,31.84132,R,ugm-3,56.38123,R,ugm-3,105.20391,R,ugm-3,,,,,,
07-01-2018,14:00,,,,42.73349,R,ugm-3,51.85428,R,ugm-3,117.37805,R,ugm-3,,,,,,
07-01-2018,15:00,,,,21.61034,R,ugm-3,43.57243,R,ugm-3,76.70782,R,ugm-3,,,,,,
07-01-2018,16:00,,,,28.53539,R,ugm-3,44.37415,R,ugm-3,88.12780,R,ugm-3,,,,,,
07-01-2018,17:00,,,,41.34152,R,ugm-3,66.37821,R,ugm-3,129.76765,R,ugm-3,,,,,,
07-01-2018,18:00,,,,26.69103,R,ugm-3,74.45926,R,ugm-3,115.38494,R,ugm-3,,,,,,
07-01-2018,19:00,,,,82.30025,R,ugm-3,83.89267,R,ugm-3,210.08462,R,ugm-3,,,,,,
07-01-2018,20:00,,,,35.04285,R,ugm-3,66.01661,R,ugm-3,119.74823,R,ugm-3,,,,,,
07-01-2018,21:00,,,,13.39772,R,ugm-3,51.42457,R,ugm-3,71.96745,R,ugm-3,,,,,,
07-01-2018,22:00,,,,24.49868,R,ugm-3,48.08577,R,ugm-3,85.64988,R,ugm-3,,,,,,
07-01-2018,23:00,,,,26.62143,R,ugm-3,63.03826,R,ugm-3,103.85722,R,ugm-3,,,,,,
07-01-2018,24:00,,,,5.35909,R,ugm-3,52.70739,R,ugm-3,60.92454,R,ugm-3,,,,,,
08-01-2018,01:00,,,,21.59833,R,ugm-3,59.88530,R,ugm-3,93.00227,R,ugm-3,,,,,,
08-01-2018,02:00,,,,2.08568,R,ugm-3,41.86792,R,ugm-3,45.06592,R,ugm-3,,,,,,
08-01-2018,03:00,,,,1.07760,R,ugm-3,29.77903,R,ugm-3,31.43132,R,ugm-3,,,,,,
08-01-2018,04:00,,,,1.04284,R,ugm-3,28.11007,R,ugm-3,29.70906,R,ugm-3,,,,,,
08-01-2018,05:00,,,,6.81321,R,ugm-3,33.14804,R,ugm-3,43.59482,R,ugm-3,,,,,,
08-01-2018,06:00,,,,9.73315,R,ugm-3,44.81708,R,ugm-3,59.74104,R,ugm-3,,,,,,
08-01-2018,07:00,,,,90.27499,R,ugm-3,71.21213,R,ugm-3,209.63186,R,ugm-3,,,,,,
08-01-2018,08:00,,,,112.34839,R,ugm-3,76.70970,R,ugm-3,248.97483,R,ugm-3,,,,,,
08-01-2018,09:00,,,,129.41617,R,ugm-3,83.69306,R,ugm-3,282.12842,R,ugm-3,,,,,,
08-01-2018,10:00,,,,56.79990,R,ugm-3,70.54904,R,ugm-3,157.64100,R,ugm-3,,,,,,
08-01-2018,11:00,,,,45.25916,R,ugm-3,55.62921,R,ugm-3,125.02562,R,ugm-3,,,,,,
08-01-2018,12:00,,,,27.42663,R,ugm-3,47.01977,R,ugm-3,89.07336,R,ugm-3,,,,,,
08-01-2018,13:00,,,,37.71597,R,ugm-3,44.85967,R,ugm-3,102.69001,R,ugm-3,,,,,,
08-01-2018,14:00,,,,23.95051,R,ugm-3,48.74377,R,ugm-3,85.46737,R,ugm-3,,,,,,
08-01-2018,15:00,,,,23.04672,R,ugm-3,31.88432,R,ugm-3,67.22213,R,ugm-3,,,,,,
08-01-2018,16:00,,,,25.96666,R,ugm-3,40.48558,R,ugm-3,80.30057,R,ugm-3,,,,,,
08-01-2018,17:00,,,,36.18647,R,ugm-3,42.68392,R,ugm-3,98.16907,R,ugm-3,,,,,,
08-01-2018,18:00,,,,22.52530,R,ugm-3,31.76887,R,ugm-3,66.30718,R,ugm-3,,,,,,
08-01-2018,19:00,,,,32.50178,R,ugm-3,43.54365,R,ugm-3,93.37902,R,ugm-3,,,,,,
08-01-2018,20:00,,,,26.90522,R,ugm-3,37.86243,R,ugm-3,79.11652,R,ugm-3,,,,,,
08-01-2018,21:00,,,,20.57867,R,ugm-3,31.63206,R,ugm-3,63.18557,R,ugm-3,,,,,,
08-01-2018,22:00,,,,7.02178,R,ugm-3,21.68735,R,ugm-3,32.45392,R,ugm-3,,,,,,
08-01-2018,23:00,,,,3.92802,R,ugm-3,16.74330,R,ugm-3,22.76618,R,ugm-3,,,,,,
08-01-2018,24:00,,,,1.94663,R,ugm-3,15.42191,R,ugm-3,18.40670,R,ugm-3,,,,,,
09-01-2018,01:00,,,,1.20374,R,ugm-3,14.35809,R,ugm-3,16.20380,R,ugm-3,,,,,,
09-01-2018,02:00,,,,1.07642,R,ugm-3,13.94388,R,ugm-3,15.59436,R,ugm-3,,,,,,
09-01-2018,03:00,,,,0.59030,R,ugm-3,14.58171,R,ugm-3,15.48682,R,ugm-3,,,,,,
09-01-2018,04:00,,,,1.00698,R,ugm-3,18.67489,R,ugm-3,20.21890,R,ugm-3,,,,,,
09-01-2018,05:00,,,,1.66672,R,ugm-3,21.05104,R,ugm-3,23.60664,R,ugm-3,,,,,,
09-01-2018,06:00,,,,4.37513,R,ugm-3,25.01803,R,ugm-3,31.72646,R,ugm-3,,,,,,
09-01-2018,07:00,,,,8.05580,R,ugm-3,27.92443,R,ugm-3,40.27648,R,ugm-3,,,,,,
09-01-2018,08:00,,,,19.23669,R,ugm-3,30.35425,R,ugm-3,59.85009,R,ugm-3,,,,,,
09-01-2018,09:00,,,,49.41120,R,ugm-3,49.90628,R,ugm-3,125.66906,R,ugm-3,,,,,,
09-01-2018,10:00,,,,42.29293,R,ugm-3,39.09624,R,ugm-3,103.94450,R,ugm-3,,,,,,
09-01-2018,11:00,,,,31.11204,R,ugm-3,27.36358,R,ugm-3,75.06804,R,ugm-3,,,,,,
09-01-2018,12:00,,,,31.73706,R,ugm-3,31.24486,R,ugm-3,79.90767,R,ugm-3,,,,,,
09-01-2018,13:00,,,,36.84138,R,ugm-3,40.89479,R,ugm-3,97.38411,R,ugm-3,,,,,,
09-01-2018,14:00,,,,40.66094,R,ugm-3,46.49200,R,ugm-3,108.83790,R,ugm-3,,,,,,
09-01-2018,15:00,,,,,,,,,,,,,,,,,,
09-01-2018,16:00,,,,75.52309,R,ugm-3,50.57527,R,ugm-3,166.37573,R,ugm-3,,,,,,
09-01-2018,17:00,,,,51.42515,R,ugm-3,43.43053,R,ugm-3,122.28132,R,ugm-3,,,,,,
09-01-2018,18:00,,,,41.04290,R,ugm-3,39.50728,R,ugm-3,102.43884,R,ugm-3,,,,,,
09-01-2018,19:00,,,,33.40378,R,ugm-3,41.32607,R,ugm-3,92.54448,R,ugm-3,,,,,,
09-01-2018,20:00,,,,19.86171,R,ugm-3,36.54780,R,ugm-3,67.00199,R,ugm-3,,,,,,
09-01-2018,21:00,,,,19.23669,R,ugm-3,38.20521,R,ugm-3,67.70105,R,ugm-3,,,,,,
09-01-2018,22:00,,,,12.53510,R,ugm-3,32.40251,R,ugm-3,51.62272,R,ugm-3,,,,,,
09-01-2018,23:00,,,,7.95163,R,ugm-3,27.43887,R,ugm-3,39.63119,R,ugm-3,,,,,,
09-01-2018,24:00,,,,4.51402,R,ugm-3,22.86921,R,ugm-3,29.79061,R,ugm-3,,,,,,
10-01-2018,01:00,,,,1.20862,R,ugm-3,17.47634,R,ugm-3,19.32953,R,ugm-3,,,,,,
10-01-2018,02:00,,,,3.43991,R,ugm-3,23.97134,R,ugm-3,29.24579,R,ugm-3,,,,,,
10-01-2018,03:00,,,,1.88265,R,ugm-3,18.67040,R,ugm-3,21.55709,R,ugm-3,,,,,,
10-01-2018,04:00,,,,2.16156,R,ugm-3,18.18885,R,ugm-3,21.50320,R,ugm-3,,,,,,
10-01-2018,05:00,,,,10.35459,R,ugm-3,21.09360,R,ugm-3,36.97042,R,ugm-3,,,,,,
10-01-2018,06:00,,,,22.97533,R,ugm-3,29.87407,R,ugm-3,65.10242,R,ugm-3,,,,,,
10-01-2018,07:00,,,,45.18366,R,ugm-3,38.28926,R,ugm-3,107.56990,R,ugm-3,,,,,,
10-01-2018,08:00,,,,53.62073,R,ugm-3,52.78400,R,ugm-3,135.00130,R,ugm-3,,,,,,
10-01-2018,09:00,,,,98.83925,R,ugm-3,82.98978,R,ugm-3,234.54118,R,ugm-3,,,,,,
10-01-2018,10:00,,,,115.15557,R,ugm-3,78.34322,R,ugm-3,254.91263,R,ugm-3,,,,,,
10-01-2018,11:00,,,,129.41492,R,ugm-3,88.43759,R,ugm-3,286.87102,R,ugm-3,,,,,,
10-01-2018,12:00,,,,82.59266,R,ugm-3,69.31368,R,ugm-3,195.95398,R,ugm-3,,,,,,
10-01-2018,13:00,,,,59.30355,R,ugm-3,54.25619,R,ugm-3,145.18702,R,ugm-3,,,,,,
10-01-2018,14:00,,,,5.54337,R,ugm-3,15.80592,R,ugm-3,24.30562,R,ugm-3,,,,,,
10-01-2018,15:00,,,,3.83503,R,ugm-3,14.54504,R,ugm-3,20.42535,R,ugm-3,,,,,,
10-01-2018,16:00,,,,27.01955,R,ugm-3,44.47562,R,ugm-3,85.90502,R,ugm-3,,,,,,
10-01-2018,17:00,,,,42.46427,R,ugm-3,76.03410,R,ugm-3,141.14507,R,ugm-3,,,,,,
10-01-2018,18:00,,,,118.18873,R,ugm-3,82.47696,R,ugm-3,263.69715,R,ugm-3,,,,,,
10-01-2018,19:00,,,,113.86560,R,ugm-3,77.84208,R,ugm-3,252.43357,R,ugm-3,,,,,,
10-01-2018,20:00,,,,86.32310,R,ugm-3,60.79132,R,ugm-3,193.15156,R,ugm-3,,,,,,
10-01-2018,21:00,,,,76.77038,R,ugm-3,55.76777,R,ugm-3,173.48071,R,ugm-3,,,,,,
10-01-2018,22:00,,,,59.89624,R,ugm-3,58.19776,R,ugm-3,150.03737,R,ugm-3,,,,,,
10-01-2018,23:00,,,,48.73978,R,ugm-3,56.71110,R,ugm-3,131.44438,R,ugm-3,,,,,,
10-01-2018,24:00,,,,11.43537,R,ugm-3,42.23305,R,ugm-3,59.76704,R,ugm-3,,,,,,
11-01-2018,01:00,,,,6.95425,R,ugm-3,35.85913,R,ugm-3,46.52216,R,ugm-3,,,,,,
11-01-2018,02:00,,,,0.70009,R,ugm-3,19.07294,R,ugm-3,20.14640,R,ugm-3,,,,,,
11-01-2018,03:00,,,,0.52507,R,ugm-3,13.07594,R,ugm-3,13.88103,R,ugm-3,,,,,,
11-01-2018,04:00,,,,0.35005,R,ugm-3,8.59126,R,ugm-3,9.12799,R,ugm-3,,,,,,
11-01-2018,05:00,,,,0.59508,R,ugm-3,9.99794,R,ugm-3,10.91038,R,ugm-3,,,,,,
11-01-2018,06:00,,,,3.99052,R,ugm-3,18.34863,R,ugm-3,24.46735,R,ugm-3,,,,,,
11-01-2018,07:00,,,,5.95078,R,ugm-3,23.76878,R,ugm-3,32.89319,R,ugm-3,,,,,,
11-01-2018,08:00,,,,4.58560,R,ugm-3,23.37748,R,ugm-3,30.40864,R,ugm-3,,,,,,
11-01-2018,09:00,,,,4.65561,R,ugm-3,25.48462,R,ugm-3,32.62313,R,ugm-3,,,,,,
11-01-2018,10:00,,,,3.32544,R,ugm-3,19.58446,R,ugm-3,24.68339,R,ugm-3,,,,,,
11-01-2018,11:00,,,,3.04540,R,ugm-3,14.55865,R,ugm-3,19.22820,R,ugm-3,,,,,,
11-01-2018,12:00,,,,4.06053,R,ugm-3,14.19039,R,ugm-3,20.41646,R,ugm-3,,,,,,
11-01-2018,13:00,,,,7.28096,R,ugm-3,16.54407,R,ugm-3,27.70805,R,ugm-3,,,,,,
11-01-2018,14:00,,,,22.36794,R,ugm-3,35.37819,R,ugm-3,69.67522,R,ugm-3,,,,,,
11-01-2018,15:00,,,,25.23832,R,ugm-3,42.85960,R,ugm-3,81.55782,R,ugm-3,,,,,,
11-01-2018,16:00,,,,14.84195,R,ugm-3,37.46582,R,ugm-3,60.22316,R,ugm-3,,,,,,
11-01-2018,17:00,,,,30.76905,R,ugm-3,48.80042,R,ugm-3,95.97897,R,ugm-3,,,,,,
11-01-2018,18:00,,,,97.59283,R,ugm-3,86.98544,R,ugm-3,236.62569,R,ugm-3,,,,,,
11-01-2018,19:00,,,,28.98381,R,ugm-3,64.66261,R,ugm-3,109.10384,R,ugm-3,,,,,,
11-01-2018,20:00,,,,44.35083,R,ugm-3,63.62310,R,ugm-3,131.62676,R,ugm-3,,,,,,
11-01-2018,21:00,,,,52.75194,R,ugm-3,63.27232,R,ugm-3,144.15749,R,ugm-3,,,,,,
11-01-2018,22:00,,,,42.77563,R,ugm-3,46.21605,R,ugm-3,111.80443,R,ugm-3,,,,,,
11-01-2018,23:00,,,,80.05553,R,ugm-3,47.60312,R,ugm-3,170.35322,R,ugm-3,,,,,,
11-01-2018,24:00,,,,13.58179,R,ugm-3,29.62191,R,ugm-3,50.44702,R,ugm-3,,,,,,
12-01-2018,01:00,,,,4.31115,R,ugm-3,30.34299,R,ugm-3,36.95334,R,ugm-3,,,,,,
12-01-2018,02:00,,,,0.84349,R,ugm-3,22.47012,R,ugm-3,23.76345,R,ugm-3,,,,,,
12-01-2018,03:00,,,,1.96814,R,ugm-3,24.85963,R,ugm-3,27.87740,R,ugm-3,,,,,,
12-01-2018,04:00,,,,1.68697,R,ugm-3,21.88050,R,ugm-3,24.46715,R,ugm-3,,,,,,
12-01-2018,05:00,,,,0.84349,R,ugm-3,17.97726,R,ugm-3,19.27059,R,ugm-3,,,,,,
12-01-2018,06:00,,,,1.75726,R,ugm-3,23.18012,R,ugm-3,25.87455,R,ugm-3,,,,,,
12-01-2018,07:00,,,,5.27179,R,ugm-3,20.71432,R,ugm-3,28.79762,R,ugm-3,,,,,,
12-01-2018,08:00,,,,8.32943,R,ugm-3,27.82654,R,ugm-3,40.59815,R,ugm-3,,,,,,
12-01-2018,09:00,,,,30.01406,R,ugm-3,34.03863,R,ugm-3,80.05955,R,ugm-3,,,,,,
12-01-2018,10:00,,,,38.65980,R,ugm-3,38.75346,R,ugm-3,98.03100,R,ugm-3,,,,,,
12-01-2018,11:00,,,,26.46439,R,ugm-3,26.76063,R,ugm-3,67.33880,R,ugm-3,,,,,,
12-01-2018,12:00,,,,41.29570,R,ugm-3,30.48961,R,ugm-3,93.80879,R,ugm-3,,,,,,
12-01-2018,13:00,,,,28.60825,R,ugm-3,26.55888,R,ugm-3,70.42426,R,ugm-3,,,,,,
12-01-2018,14:00,,,,31.59560,R,ugm-3,30.47689,R,ugm-3,78.92280,R,ugm-3,,,,,,
12-01-2018,15:00,,,,47.23525,R,ugm-3,37.89233,R,ugm-3,110.31870,R,ugm-3,,,,,,
12-01-2018,16:00,,,,65.37021,R,ugm-3,48.13978,R,ugm-3,148.37270,R,ugm-3,,,,,,
12-01-2018,17:00,,,,45.40769,R,ugm-3,41.61477,R,ugm-3,111.23893,R,ugm-3,,,,,,
12-01-2018,18:00,,,,37.18370,R,ugm-3,47.56662,R,ugm-3,104.58083,R,ugm-3,,,,,,
12-01-2018,19:00,,,,45.23197,R,ugm-3,52.54799,R,ugm-3,121.90271,R,ugm-3,,,,,,
12-01-2018,20:00,,,,30.47095,R,ugm-3,45.73404,R,ugm-3,92.45552,R,ugm-3,,,,,,
12-01-2018,21:00,,,,25.76149,R,ugm-3,40.72155,R,ugm-3,80.22194,R,ugm-3,,,,,,
12-01-2018,22:00,,,,9.80553,R,ugm-3,36.76830,R,ugm-3,51.80324,R,ugm-3,,,,,,
12-01-2018,23:00,,,,4.63918,R,ugm-3,28.50481,R,ugm-3,35.61811,R,ugm-3,,,,,,
12-01-2018,24:00,,,,4.21743,R,ugm-3,19.57031,R,ugm-3,26.03695,R,ugm-3,,,,,,
13-01-2018,01:00,,,,1.74077,R,ugm-3,16.64383,R,ugm-3,19.31298,R,ugm-3,,,,,,
13-01-2018,02:00,,,,1.65844,R,ugm-3,15.19682,R,ugm-3,17.73973,R,ugm-3,,,,,,
13-01-2018,03:00,,,,1.62315,R,ugm-3,11.88743,R,ugm-3,14.37623,R,ugm-3,,,,,,
13-01-2018,04:00,,,,1.09387,R,ugm-3,9.87800,R,ugm-3,11.55524,R,ugm-3,,,,,,
13-01-2018,05:00,,,,1.23501,R,ugm-3,8.03409,R,ugm-3,9.92774,R,ugm-3,,,,,,
13-01-2018,06:00,,,,1.62315,R,ugm-3,8.46969,R,ugm-3,10.95849,R,ugm-3,,,,,,
13-01-2018,07:00,,,,1.94073,R,ugm-3,8.36250,R,ugm-3,11.33824,R,ugm-3,,,,,,
13-01-2018,08:00,,,,4.76360,R,ugm-3,10.21864,R,ugm-3,17.52273,R,ugm-3,,,,,,
13-01-2018,09:00,,,,9.42135,R,ugm-3,15.01185,R,ugm-3,29.45771,R,ugm-3,,,,,,
13-01-2018,10:00,,,,9.59778,R,ugm-3,17.39957,R,ugm-3,32.11596,R,ugm-3,,,,,,
13-01-2018,11:00,,,,13.47923,R,ugm-3,22.40658,R,ugm-3,43.07445,R,ugm-3,,,,,,
13-01-2018,12:00,,,,20.88928,R,ugm-3,22.49140,R,ugm-3,54.52118,R,ugm-3,,,,,,
13-01-2018,13:00,,,,18.10169,R,ugm-3,21.12365,R,ugm-3,48.87919,R,ugm-3,,,,,,
13-01-2018,14:00,,,,17.11368,R,ugm-3,24.53732,R,ugm-3,50.77794,R,ugm-3,,,,,,
13-01-2018,15:00,,,,20.18356,R,ugm-3,27.04548,R,ugm-3,57.99318,R,ugm-3,,,,,,
13-01-2018,16:00,,,,15.34939,R,ugm-3,23.49929,R,ugm-3,47.03469,R,ugm-3,,,,,,
13-01-2018,17:00,,,,12.31480,R,ugm-3,24.13777,R,ugm-3,43.02020,R,ugm-3,,,,,,
13-01-2018,18:00,,,,17.60769,R,ugm-3,31.04935,R,ugm-3,58.04743,R,ugm-3,,,,,,
13-01-2018,19:00,,,,18.84269,R,ugm-3,30.02370,R,ugm-3,58.91543,R,ugm-3,,,,,,
13-01-2018,20:00,,,,7.86877,R,ugm-3,22.43768,R,ugm-3,34.50296,R,ugm-3,,,,,,